This demonstration page uses our WeatherBlox Daily Observations layout. Learn more.

39.29038, -76.61219

Hourly Observations for March 13, 2019

Temp ( °F °C ) Dew Point ( °F °C ) Humidity (%) Winds ( mph kmh ) Pressure ( in mb ) Visibility ( mi km ) Precip ( " mm )
12:54 am 00:54 undefined 40 4.4 24 -4.4 53 53 undefined N/A 30.32 1027 N/A 0 0
1:54 am 01:54 undefined 40 4.4 22 -5.6 49 49 undefined N/A 30.32 1027 N/A 0 0
2:54 am 02:54 undefined 38 3.3 22 -5.6 52 52 undefined N/A 30.33 1027 N/A 0 0
3:54 am 03:54 undefined 38 3.3 22 -5.6 52 52 undefined N/A 30.33 1027 N/A 0 0
4:54 am 04:54 undefined 37 2.8 24 -4.4 59 59 undefined N/A 30.33 1027 N/A 0 0
5:54 am 05:54 undefined 35 1.7 24 -4.4 64 64 undefined N/A 30.32 1027 N/A 0 0
6:54 am 06:54 undefined 35 1.7 23 -5 61 61 undefined N/A 30.36 1028 N/A 0 0
7:54 am 07:54 undefined 36 2.2 26 -3.3 67 67 undefined N/A 30.37 1028 N/A 0 0
8:54 am 08:54 undefined 39 3.9 29 -1.7 67 67 undefined N/A 30.41 1030 N/A 0 0
9:54 am 09:54 undefined 43 6.1 27 -2.8 53 53 undefined N/A 30.43 1030 N/A 0 0
10:54 am 10:54 undefined 47 8.3 27 -2.8 46 46 undefined N/A 30.4 1029 N/A 0 0
11:54 am 11:54 undefined 50 10 27 -2.8 41 41 undefined N/A 30.38 1029 N/A 0 0
12:54 pm 12:54 undefined 51 10.6 27 -2.8 39 39 undefined N/A 30.37 1029 N/A 0 0
1:54 pm 13:54 undefined 52 11.1 24 -4.4 34 34 undefined N/A 30.33 1027 N/A 0 0
2:54 pm 14:54 undefined 53 11.7 25 -3.9 34 34 undefined N/A 30.28 1025 N/A 0 0
3:54 pm 15:54 undefined 51 10.6 26 -3.3 38 38 undefined N/A 30.26 1025 N/A 0 0
4:54 pm 16:54 undefined 52 11.1 22 -5.6 31 31 undefined N/A 30.26 1025 N/A 0 0
5:54 pm 17:54 undefined 51 10.6 22 -5.6 32 32 undefined N/A 30.26 1025 N/A 0 0
6:54 pm 18:54 undefined 50 10 26 -3.3 39 39 undefined N/A 30.26 1025 N/A 0 0
7:54 pm 19:54 undefined 49 9.4 27 -2.8 43 43 undefined N/A 30.27 1025 N/A 0 0
8:54 pm 20:54 undefined 49 9.4 28 -2.2 44 44 undefined N/A 30.28 1025 N/A 0 0
9:54 pm 21:54 undefined 48 8.9 30 -1.1 50 50 undefined N/A 30.27 1025 N/A 0 0
10:54 pm 22:54 undefined 48 8.9 30 -1.1 50 50 undefined N/A 30.27 1025 N/A 0 0
11:54 pm 23:54 undefined 47 8.3 32 0 56 56 undefined N/A 30.27 1025 N/A 0 0

Powered by AerisWeather